Time,TemperatureF,DewpointF,PressureIn,WindDirection,WindDirectionDegrees,WindSpeedMPH,WindSpeedGustMPH,Humidity,HourlyPrecipIn,Conditions,Clouds,dailyrainin,SoftwareType,DateUTC
2013-12-15 00:01:00,19.6,15.0,29.82,NNW,338,0.0,1.6,82,0.00,,---,0.00,VWS V14.00,2013-12-15 05:01:00,
2013-12-15 00:02:00,19.6,15.0,29.82,NNW,338,0.9,0.9,82,0.00,,---,0.00,VWS V14.00,2013-12-15 05:02:00,
2013-12-15 00:03:00,19.6,15.0,29.82,NNW,338,0.0,1.1,82,0.00,,---,0.00,VWS V14.00,2013-12-15 05:03:00,
2013-12-15 00:08:00,19.6,15.0,29.82,NNW,338,0.0,0.0,82,0.00,,---,0.00,VWS V14.00,2013-12-15 05:08:00,
2013-12-15 00:13:00,19.6,15.0,29.82,NNW,338,0.0,1.3,82,0.00,,---,0.00,VWS V14.00,2013-12-15 05:13:00,
2013-12-15 00:18:00,19.6,15.0,29.82,NNW,338,0.0,0.9,82,0.00,,---,0.00,VWS V14.00,2013-12-15 05:18:00,
2013-12-15 00:23:00,19.6,15.0,29.82,NNW,338,0.0,0.0,82,0.00,,---,0.00,VWS V14.00,2013-12-15 05:23:00,
2013-12-15 00:28:00,19.8,15.2,29.82,NNW,338,0.9,1.3,82,0.00,,---,0.00,VWS V14.00,2013-12-15 05:28:00,
2013-12-15 00:33:00,19.8,15.2,29.82,NNW,338,1.6,1.6,82,0.00,,---,0.00,VWS V14.00,2013-12-15 05:33:00,
2013-12-15 00:38:00,19.6,15.0,29.82,NNW,338,0.9,0.9,82,0.00,,---,0.00,VWS V14.00,2013-12-15 05:38:00,
2013-12-15 00:43:00,19.6,15.0,29.82,NNW,338,0.0,1.1,82,0.00,,---,0.00,VWS V14.00,2013-12-15 05:43:00,
2013-12-15 00:48:00,19.6,15.0,29.82,NNW,338,0.0,0.0,82,0.00,,---,0.00,VWS V14.00,2013-12-15 05:48:00,
2013-12-15 00:53:00,19.6,15.0,29.82,NNW,338,0.0,0.0,82,0.00,,---,0.00,VWS V14.00,2013-12-15 05:53:00,
2013-12-15 00:58:00,19.6,15.0,29.82,NNW,338,0.0,0.0,82,0.00,,---,0.00,VWS V14.00,2013-12-15 05:58:00,
2013-12-15 01:03:00,19.6,15.0,29.82,NNW,338,0.0,0.0,82,0.00,,---,0.00,VWS V14.00,2013-12-15 06:03:00,
2013-12-15 01:08:00,19.6,15.0,29.82,NNW,338,0.0,0.0,82,0.00,,---,0.00,VWS V14.00,2013-12-15 06:08:00,
2013-12-15 01:13:00,19.6,15.0,29.82,NNW,338,0.0,0.0,82,0.00,,---,0.00,VWS V14.00,2013-12-15 06:13:00,
2013-12-15 01:18:00,19.6,15.0,29.82,NNW,338,0.0,0.0,82,0.00,,---,0.00,VWS V14.00,2013-12-15 06:18:00,
2013-12-15 01:23:00,19.8,15.2,29.82,NNW,338,0.0,1.1,82,0.00,,---,0.00,VWS V14.00,2013-12-15 06:23:00,
2013-12-15 01:29:00,19.8,15.2,29.79,NNW,338,0.0,1.1,82,0.00,,---,0.00,VWS V14.00,2013-12-15 06:29:00,
2013-12-15 01:34:00,19.6,15.0,29.79,NNW,338,1.3,1.6,82,0.00,,---,0.00,VWS V14.00,2013-12-15 06:34:00,
2013-12-15 01:39:00,19.6,15.0,29.79,NNW,338,0.0,0.0,82,0.00,,---,0.00,VWS V14.00,2013-12-15 06:39:00,
2013-12-15 01:44:00,19.6,15.0,29.79,NNW,338,0.0,0.0,82,0.00,,---,0.00,VWS V14.00,2013-12-15 06:44:00,
2013-12-15 01:49:00,19.8,15.2,29.79,NNW,338,0.0,0.0,82,0.00,,---,0.00,VWS V14.00,2013-12-15 06:49:00,
2013-12-15 01:54:00,19.8,15.2,29.79,NNW,338,0.0,0.0,82,0.00,,---,0.00,VWS V14.00,2013-12-15 06:54:00,
2013-12-15 01:59:00,19.9,15.3,29.82,NNW,338,0.0,0.0,82,0.00,,---,0.00,VWS V14.00,2013-12-15 06:59:00,
2013-12-15 02:04:00,20.1,15.5,29.82,NNW,338,0.0,0.0,82,0.00,,---,0.00,VWS V14.00,2013-12-15 07:04:00,
2013-12-15 02:09:00,20.1,15.5,29.82,NNW,338,0.0,0.0,82,0.00,,---,0.00,VWS V14.00,2013-12-15 07:09:00,
2013-12-15 02:14:00,20.1,15.5,29.82,NNW,338,0.0,0.0,82,0.00,,---,0.00,VWS V14.00,2013-12-15 07:14:00,
2013-12-15 02:19:00,20.3,15.7,29.82,NNW,338,1.1,1.1,82,0.00,,---,0.00,VWS V14.00,2013-12-15 07:19:00,
2013-12-15 02:24:00,20.3,15.7,29.82,NNW,338,0.0,0.0,82,0.00,,---,0.00,VWS V14.00,2013-12-15 07:24:00,
2013-12-15 02:29:00,20.3,15.7,29.82,NNW,338,1.1,1.1,82,0.00,,---,0.00,VWS V14.00,2013-12-15 07:29:00,
2013-12-15 02:34:00,20.3,15.7,29.82,NNW,338,0.0,0.0,82,0.00,,---,0.00,VWS V14.00,2013-12-15 07:34:00,
2013-12-15 02:39:00,20.5,15.9,29.82,NNW,338,0.0,0.0,82,0.00,,---,0.00,VWS V14.00,2013-12-15 07:39:00,
2013-12-15 02:44:00,20.5,15.9,29.82,NNW,338,0.0,0.0,82,0.00,,---,0.00,VWS V14.00,2013-12-15 07:44:00,
2013-12-15 02:49:00,20.5,15.9,29.82,NNW,338,0.0,0.0,82,0.00,,---,0.00,VWS V14.00,2013-12-15 07:49:00,
2013-12-15 02:55:00,20.7,16.0,29.82,NNW,338,0.0,0.0,82,0.00,,---,0.00,VWS V14.00,2013-12-15 07:55:00,
2013-12-15 03:00:00,20.7,16.0,29.82,NNW,338,0.0,0.0,82,0.00,,---,0.00,VWS V14.00,2013-12-15 08:00:00,
2013-12-15 03:05:00,20.8,16.2,29.82,NNW,338,0.0,0.0,82,0.00,,---,0.00,VWS V14.00,2013-12-15 08:05:00,
2013-12-15 03:10:00,20.8,16.2,29.82,NNW,338,0.0,0.0,82,0.00,,---,0.00,VWS V14.00,2013-12-15 08:10:00,
2013-12-15 03:15:00,20.8,16.2,29.82,NNW,338,0.0,0.0,82,0.00,,---,0.00,VWS V14.00,2013-12-15 08:15:00,
2013-12-15 03:20:00,20.7,16.0,29.82,NNW,338,0.0,0.0,82,0.00,,---,0.00,VWS V14.00,2013-12-15 08:20:00,
2013-12-15 03:25:00,20.8,15.9,29.82,NNW,338,0.0,0.0,81,0.00,,---,0.00,VWS V14.00,2013-12-15 08:25:00,
2013-12-15 03:30:00,20.7,15.8,29.82,NNW,338,0.0,0.0,81,0.00,,---,0.00,VWS V14.00,2013-12-15 08:30:00,
2013-12-15 03:35:00,20.7,15.8,29.82,NNW,338,0.0,1.1,81,0.00,,---,0.00,VWS V14.00,2013-12-15 08:35:00,
2013-12-15 03:40:00,20.7,15.8,29.82,NNW,338,0.0,0.0,81,0.00,,---,0.00,VWS V14.00,2013-12-15 08:40:00,
2013-12-15 03:45:00,20.7,15.8,29.82,NNW,338,0.0,0.0,81,0.00,,---,0.00,VWS V14.00,2013-12-15 08:45:00,
2013-12-15 03:50:00,20.7,15.8,29.82,NNW,338,0.0,0.0,81,0.00,,---,0.00,VWS V14.00,2013-12-15 08:50:00,
2013-12-15 03:55:00,20.5,15.6,29.82,NNW,338,0.9,0.9,81,0.00,,---,0.00,VWS V14.00,2013-12-15 08:55:00,
2013-12-15 04:00:00,20.5,15.6,29.82,NNW,338,0.0,0.9,81,0.00,,---,0.00,VWS V14.00,2013-12-15 09:00:00,
2013-12-15 04:05:00,20.5,15.6,29.82,NNW,338,0.0,0.0,81,0.00,,---,0.00,VWS V14.00,2013-12-15 09:05:00,
2013-12-15 04:10:00,20.5,15.9,29.82,NNW,338,0.9,0.9,82,0.00,,---,0.00,VWS V14.00,2013-12-15 09:10:00,
2013-12-15 04:15:00,20.5,15.9,29.82,NNW,338,0.0,0.0,82,0.00,,---,0.00,VWS V14.00,2013-12-15 09:15:00,
2013-12-15 04:21:00,20.5,15.9,29.82,NNW,338,0.9,2.0,82,0.00,,---,0.00,VWS V14.00,2013-12-15 09:21:00,
2013-12-15 04:26:00,20.5,15.9,29.82,NNW,338,0.0,0.9,82,0.00,,---,0.00,VWS V14.00,2013-12-15 09:26:00,
2013-12-15 04:31:00,20.7,16.0,29.82,NNW,338,0.9,1.1,82,0.00,,---,0.00,VWS V14.00,2013-12-15 09:31:00,
2013-12-15 04:36:00,20.7,16.0,29.82,NNW,338,0.9,2.0,82,0.00,,---,0.00,VWS V14.00,2013-12-15 09:36:00,
2013-12-15 04:41:00,20.7,16.0,29.82,NNW,338,1.1,1.1,82,0.00,,---,0.00,VWS V14.00,2013-12-15 09:41:00,
2013-12-15 04:46:00,20.8,16.5,29.79,NNW,338,2.0,2.0,83,0.00,,---,0.00,VWS V14.00,2013-12-15 09:46:00,
2013-12-15 04:51:00,20.8,16.5,29.79,NNW,338,0.0,1.3,83,0.00,,---,0.00,VWS V14.00,2013-12-15 09:51:00,
2013-12-15 04:56:00,20.8,16.5,29.79,NNW,338,0.9,0.9,83,0.00,,---,0.00,VWS V14.00,2013-12-15 09:56:00,
2013-12-15 05:01:00,20.8,16.5,29.79,NNW,338,1.1,1.1,83,0.00,,---,0.00,VWS V14.00,2013-12-15 10:01:00,
2013-12-15 05:06:00,20.8,16.5,29.79,NNW,338,0.0,0.0,83,0.00,,---,0.00,VWS V14.00,2013-12-15 10:06:00,
2013-12-15 05:11:00,21.0,17.0,29.79,NNW,338,1.1,1.3,84,0.00,,---,0.00,VWS V14.00,2013-12-15 10:11:00,
2013-12-15 05:16:00,21.0,17.2,29.79,NNW,338,1.3,1.3,85,0.00,,---,0.00,VWS V14.00,2013-12-15 10:16:00,
2013-12-15 05:21:00,21.0,17.2,29.79,NNW,338,0.9,1.1,85,0.00,,---,0.00,VWS V14.00,2013-12-15 10:21:00,
2013-12-15 05:26:00,21.2,17.4,29.79,NNW,338,0.9,1.3,85,0.00,,---,0.00,VWS V14.00,2013-12-15 10:26:00,
2013-12-15 05:31:00,21.2,17.4,29.79,NNW,338,0.0,1.3,85,0.00,,---,0.00,VWS V14.00,2013-12-15 10:31:00,
2013-12-15 05:37:00,21.4,17.6,29.79,NNW,338,0.0,1.3,85,0.00,,---,0.00,VWS V14.00,2013-12-15 10:37:00,
2013-12-15 05:42:00,21.4,17.9,29.79,NNW,338,0.9,1.3,86,0.00,,---,0.00,VWS V14.00,2013-12-15 10:42:00,
2013-12-15 05:47:00,21.4,17.9,29.79,NNW,338,1.3,1.3,86,0.00,,---,0.00,VWS V14.00,2013-12-15 10:47:00,
2013-12-15 05:52:00,21.6,18.0,29.79,NNW,338,1.3,1.3,86,0.00,,---,0.00,VWS V14.00,2013-12-15 10:52:00,
2013-12-15 05:57:00,21.6,18.0,29.79,NNW,338,0.0,1.1,86,0.00,,---,0.00,VWS V14.00,2013-12-15 10:57:00,
2013-12-15 06:02:00,21.7,18.2,29.79,NNW,338,1.1,1.6,86,0.00,,---,0.00,VWS V14.00,2013-12-15 11:02:00,
2013-12-15 06:07:00,21.7,18.2,29.79,NNW,338,2.2,2.2,86,0.00,,---,0.00,VWS V14.00,2013-12-15 11:07:00,
2013-12-15 06:12:00,21.9,18.4,29.79,NNW,338,0.9,1.3,86,0.00,,---,0.00,VWS V14.00,2013-12-15 11:12:00,
2013-12-15 06:17:00,21.9,18.4,29.79,NNW,338,1.1,1.6,86,0.00,,---,0.00,VWS V14.00,2013-12-15 11:17:00,
2013-12-15 06:22:00,21.9,18.4,29.79,NNW,338,0.0,1.1,86,0.00,,---,0.00,VWS V14.00,2013-12-15 11:22:00,
2013-12-15 06:27:00,22.3,19.0,29.79,NNW,338,0.0,0.0,87,0.00,,---,0.00,VWS V14.00,2013-12-15 11:27:00,
2013-12-15 06:32:00,22.5,19.2,29.79,NNW,338,2.2,2.2,87,0.00,,---,0.00,VWS V14.00,2013-12-15 11:32:00,
2013-12-15 06:37:00,22.6,19.6,29.79,NNW,338,1.3,1.3,88,0.00,,---,0.00,VWS V14.00,2013-12-15 11:37:00,
2013-12-15 06:42:00,23.0,20.0,29.79,NNW,338,2.7,2.7,88,0.00,,---,0.00,VWS V14.00,2013-12-15 11:42:00,
2013-12-15 06:47:00,23.4,20.3,29.79,NNW,338,2.0,2.0,88,0.00,,---,0.00,VWS V14.00,2013-12-15 11:47:00,
2013-12-15 06:52:00,23.7,21.0,29.79,NNW,338,1.3,1.3,89,0.00,,---,0.00,VWS V14.00,2013-12-15 11:52:00,
2013-12-15 06:57:00,23.9,21.4,29.79,NNW,338,1.1,1.6,90,0.00,,---,0.00,VWS V14.00,2013-12-15 11:57:00,
2013-12-15 07:02:00,24.1,21.6,29.79,NNW,338,1.6,1.6,90,0.00,,---,0.00,VWS V14.00,2013-12-15 12:02:00,
2013-12-15 07:07:00,24.3,21.8,29.79,NNW,338,2.0,2.0,90,0.00,,---,0.00,VWS V14.00,2013-12-15 12:07:00,
2013-12-15 07:13:00,24.4,21.9,29.76,NNW,338,2.0,2.0,90,0.00,,---,0.00,VWS V14.00,2013-12-15 12:13:00,
2013-12-15 07:18:00,24.4,21.7,29.76,NNW,338,2.2,2.2,89,0.00,,---,0.00,VWS V14.00,2013-12-15 12:18:00,
2013-12-15 07:23:00,24.4,21.7,29.76,NNW,338,2.7,4.0,89,0.00,,---,0.00,VWS V14.00,2013-12-15 12:23:00,
2013-12-15 07:28:00,24.4,21.4,29.76,NNW,338,2.9,2.9,88,0.00,,---,0.00,VWS V14.00,2013-12-15 12:28:00,
2013-12-15 07:33:00,24.6,21.6,29.76,NNW,338,1.3,1.6,88,0.00,,---,0.00,VWS V14.00,2013-12-15 12:33:00,
2013-12-15 07:38:00,24.6,21.3,29.76,NNW,338,0.9,0.9,87,0.00,,---,0.00,VWS V14.00,2013-12-15 12:38:00,
2013-12-15 07:43:00,24.6,21.3,29.76,SSW,202,0.9,0.9,87,0.00,,---,0.00,VWS V14.00,2013-12-15 12:43:00,
2013-12-15 07:48:00,24.6,21.0,29.76,SSW,202,0.9,0.9,86,0.00,,---,0.00,VWS V14.00,2013-12-15 12:48:00,
2013-12-15 07:53:00,24.6,21.0,29.76,WSW,248,0.9,0.9,86,0.00,,---,0.00,VWS V14.00,2013-12-15 12:53:00,
2013-12-15 07:58:00,24.6,21.0,29.74,WSW,248,0.9,0.9,86,0.00,,---,0.00,VWS V14.00,2013-12-15 12:58:00,
2013-12-15 08:03:00,24.6,21.0,29.74,West,270,1.1,1.1,86,0.00,,---,0.00,VWS V14.00,2013-12-15 13:03:00,
2013-12-15 08:08:00,24.6,20.8,29.74,NW,315,1.6,1.6,85,0.00,,---,0.00,VWS V14.00,2013-12-15 13:08:00,
2013-12-15 08:13:00,24.4,20.6,29.74,West,270,1.1,1.1,85,0.00,,---,0.00,VWS V14.00,2013-12-15 13:13:00,
2013-12-15 08:18:00,24.4,20.6,29.74,North,0,2.0,2.9,85,0.00,,---,0.00,VWS V14.00,2013-12-15 13:18:00,
2013-12-15 08:23:00,24.4,20.3,29.74,North,0,1.3,1.3,84,0.00,,---,0.00,VWS V14.00,2013-12-15 13:23:00,
2013-12-15 08:28:00,24.4,20.3,29.76,NW,315,2.7,2.7,84,0.00,,---,0.00,VWS V14.00,2013-12-15 13:28:00,
2013-12-15 08:33:00,24.4,20.0,29.76,WSW,248,2.7,2.7,83,0.00,,---,0.00,VWS V14.00,2013-12-15 13:33:00,
2013-12-15 08:38:00,24.4,20.0,29.76,SSW,202,2.0,3.4,83,0.00,,---,0.00,VWS V14.00,2013-12-15 13:38:00,
2013-12-15 08:43:00,24.4,19.7,29.76,West,270,1.3,1.3,82,0.00,,---,0.00,VWS V14.00,2013-12-15 13:43:00,
2013-12-15 08:49:00,24.3,19.6,29.76,WNW,292,1.1,1.1,82,0.00,,---,0.00,VWS V14.00,2013-12-15 13:49:00,
2013-12-15 08:54:00,24.3,19.6,29.76,SSW,202,0.0,0.0,82,0.00,,---,0.00,VWS V14.00,2013-12-15 13:54:00,
2013-12-15 08:59:00,24.3,19.3,29.76,SSW,202,2.0,2.0,81,0.00,,---,0.00,VWS V14.00,2013-12-15 13:59:00,
2013-12-15 09:04:00,24.3,19.3,29.76,West,270,2.5,2.5,81,0.00,,---,0.00,VWS V14.00,2013-12-15 14:04:00,
2013-12-15 09:09:00,24.3,19.3,29.76,NNW,338,1.1,1.6,81,0.00,,---,0.00,VWS V14.00,2013-12-15 14:09:00,
2013-12-15 09:14:00,24.3,19.3,29.76,NNE,22,2.7,2.7,81,0.00,,---,0.00,VWS V14.00,2013-12-15 14:14:00,
2013-12-15 09:19:00,24.1,18.8,29.76,North,0,1.1,2.9,80,0.00,,---,0.00,VWS V14.00,2013-12-15 14:19:00,
2013-12-15 09:24:00,23.7,18.2,29.76,NW,315,2.2,2.2,79,0.00,,---,0.00,VWS V14.00,2013-12-15 14:24:00,
2013-12-15 09:29:00,23.5,17.4,29.79,NNW,338,1.6,3.1,77,0.00,,---,0.00,VWS V14.00,2013-12-15 14:29:00,
2013-12-15 09:34:00,23.2,16.8,29.79,WSW,248,2.0,2.0,76,0.00,,---,0.00,VWS V14.00,2013-12-15 14:34:00,
2013-12-15 09:39:00,23.2,16.8,29.79,WSW,248,2.7,3.1,76,0.00,,---,0.00,VWS V14.00,2013-12-15 14:39:00,
2013-12-15 09:44:00,22.8,16.7,29.76,NNE,22,2.2,2.5,77,0.00,,---,0.00,VWS V14.00,2013-12-15 14:44:00,
2013-12-15 09:49:00,22.6,16.2,29.76,NNE,22,1.6,1.6,76,0.00,,---,0.00,VWS V14.00,2013-12-15 14:49:00,
2013-12-15 09:54:00,22.5,16.0,29.76,WNW,292,1.3,1.3,76,0.00,,---,0.00,VWS V14.00,2013-12-15 14:54:00,
2013-12-15 09:59:00,22.3,15.9,29.82,SSW,202,1.6,1.6,76,0.00,,---,0.00,VWS V14.00,2013-12-15 14:59:00,
2013-12-15 10:04:00,22.3,15.9,29.82,SSW,202,1.6,1.6,76,0.00,,---,0.00,VWS V14.00,2013-12-15 15:04:00,
2013-12-15 10:09:00,22.3,15.9,29.82,West,270,1.3,1.3,76,0.00,,---,0.00,VWS V14.00,2013-12-15 15:09:00,
2013-12-15 10:14:00,22.3,15.6,29.79,SW,225,2.0,2.0,75,0.00,,---,0.00,VWS V14.00,2013-12-15 15:14:00,
2013-12-15 10:19:00,21.9,15.2,29.79,WSW,248,2.0,2.0,75,0.00,,---,0.00,VWS V14.00,2013-12-15 15:19:00,
2013-12-15 10:25:00,22.1,15.7,29.79,NW,315,2.9,2.9,76,0.00,,---,0.00,VWS V14.00,2013-12-15 15:25:00,
2013-12-15 10:30:00,22.1,15.7,29.79,NNW,338,2.5,2.5,76,0.00,,---,0.00,VWS V14.00,2013-12-15 15:30:00,
2013-12-15 10:35:00,22.1,15.7,29.79,WSW,248,0.9,2.0,76,0.00,,---,0.00,VWS V14.00,2013-12-15 15:35:00,
2013-12-15 10:40:00,22.3,16.2,29.79,WSW,248,0.9,0.9,77,0.00,,---,0.00,VWS V14.00,2013-12-15 15:40:00,
2013-12-15 10:45:00,22.3,16.2,29.82,SSW,202,1.1,1.1,77,0.00,,---,0.00,VWS V14.00,2013-12-15 15:45:00,
2013-12-15 10:50:00,22.3,16.2,29.82,West,270,1.3,2.0,77,0.00,,---,0.00,VWS V14.00,2013-12-15 15:50:00,
2013-12-15 10:55:00,22.1,16.0,29.82,SW,225,2.5,2.9,77,0.00,,---,0.00,VWS V14.00,2013-12-15 15:55:00,
2013-12-15 11:00:00,21.9,15.5,29.82,NNW,338,1.6,1.6,76,0.00,,---,0.00,VWS V14.00,2013-12-15 16:00:00,
2013-12-15 11:05:00,21.9,15.8,29.82,SE,135,1.6,1.6,77,0.00,,---,0.00,VWS V14.00,2013-12-15 16:05:00,
2013-12-15 11:10:00,21.9,15.8,29.82,South,180,0.9,2.7,77,0.00,,---,0.00,VWS V14.00,2013-12-15 16:10:00,
2013-12-15 11:15:00,21.9,15.8,29.82,WSW,248,3.4,3.4,77,0.00,,---,0.00,VWS V14.00,2013-12-15 16:15:00,
2013-12-15 11:20:00,21.9,15.8,29.82,North,0,1.6,2.5,77,0.00,,---,0.00,VWS V14.00,2013-12-15 16:20:00,
2013-12-15 11:25:00,22.3,16.2,29.82,WNW,292,1.1,1.1,77,0.00,,---,0.00,VWS V14.00,2013-12-15 16:25:00,
2013-12-15 11:30:00,22.1,15.7,29.82,North,0,1.6,1.6,76,0.00,,---,0.00,VWS V14.00,2013-12-15 16:30:00,
2013-12-15 11:35:00,21.9,15.2,29.82,NNW,338,4.7,4.7,75,0.00,,---,0.00,VWS V14.00,2013-12-15 16:35:00,
2013-12-15 11:40:00,21.9,14.9,29.82,NNE,22,2.5,2.5,74,0.00,,---,0.00,VWS V14.00,2013-12-15 16:40:00,
2013-12-15 11:45:00,22.1,15.4,29.82,NNE,22,1.3,1.3,75,0.00,,---,0.00,VWS V14.00,2013-12-15 16:45:00,
2013-12-15 11:50:00,21.9,14.9,29.82,WSW,248,1.1,1.1,74,0.00,,---,0.00,VWS V14.00,2013-12-15 16:50:00,
2013-12-15 11:55:00,22.1,15.4,29.82,WSW,248,1.3,1.3,75,0.00,,---,0.00,VWS V14.00,2013-12-15 16:55:00,
2013-12-15 12:00:00,22.3,15.6,29.82,West,270,1.3,1.3,75,0.00,,---,0.00,VWS V14.00,2013-12-15 17:00:00,
2013-12-15 12:06:00,21.9,15.2,29.82,West,270,1.3,1.3,75,0.00,,---,0.00,VWS V14.00,2013-12-15 17:06:00,
2013-12-15 12:11:00,21.9,14.9,29.82,WSW,248,1.1,1.1,74,0.00,,---,0.00,VWS V14.00,2013-12-15 17:11:00,
2013-12-15 12:16:00,21.9,14.9,29.82,WNW,292,2.2,2.2,74,0.00,,---,0.00,VWS V14.00,2013-12-15 17:16:00,
2013-12-15 12:21:00,21.7,14.7,29.82,West,270,2.0,2.7,74,0.00,,---,0.00,VWS V14.00,2013-12-15 17:21:00,
2013-12-15 12:26:00,21.6,14.9,29.82,NNW,338,1.6,1.6,75,0.00,,---,0.00,VWS V14.00,2013-12-15 17:26:00,
2013-12-15 12:31:00,21.7,15.1,29.79,NE,45,2.5,2.5,75,0.00,,---,0.00,VWS V14.00,2013-12-15 17:31:00,
2013-12-15 12:36:00,21.9,14.9,29.79,North,0,2.7,2.9,74,0.00,,---,0.00,VWS V14.00,2013-12-15 17:36:00,
2013-12-15 12:41:00,22.3,15.3,29.79,West,270,2.5,2.5,74,0.00,,---,0.00,VWS V14.00,2013-12-15 17:41:00,
2013-12-15 12:46:00,22.3,15.3,29.82,West,270,1.6,1.6,74,0.00,,---,0.00,VWS V14.00,2013-12-15 17:46:00,
2013-12-15 12:51:00,22.1,14.5,29.82,NNW,338,1.1,2.0,72,0.00,,---,0.00,VWS V14.00,2013-12-15 17:51:00,
2013-12-15 12:56:00,22.3,15.0,29.82,NNW,338,0.0,0.0,73,0.00,,---,0.00,VWS V14.00,2013-12-15 17:56:00,
2013-12-15 13:01:00,22.1,14.5,29.79,NNW,338,2.2,2.2,72,0.00,,---,0.00,VWS V14.00,2013-12-15 18:01:00,
2013-12-15 13:06:00,22.1,14.5,29.79,NW,315,2.0,2.0,72,0.00,,---,0.00,VWS V14.00,2013-12-15 18:06:00,
2013-12-15 13:11:00,21.9,14.3,29.79,NW,315,0.9,0.9,72,0.00,,---,0.00,VWS V14.00,2013-12-15 18:11:00,
2013-12-15 13:16:00,21.6,13.9,29.82,North,0,1.3,2.7,72,0.00,,---,0.00,VWS V14.00,2013-12-15 18:16:00,
2013-12-15 13:21:00,21.6,14.3,29.82,North,0,1.3,1.3,73,0.00,,---,0.00,VWS V14.00,2013-12-15 18:21:00,
2013-12-15 13:26:00,21.6,13.9,29.82,WSW,248,3.1,3.1,72,0.00,,---,0.00,VWS V14.00,2013-12-15 18:26:00,
2013-12-15 13:31:00,21.4,14.1,29.79,WSW,248,3.1,3.1,73,0.00,,---,0.00,VWS V14.00,2013-12-15 18:31:00,
2013-12-15 13:36:00,21.4,14.1,29.79,NNW,338,0.9,0.9,73,0.00,,---,0.00,VWS V14.00,2013-12-15 18:36:00,
2013-12-15 13:41:00,21.4,14.4,29.79,NNW,338,0.9,0.9,74,0.00,,---,0.00,VWS V14.00,2013-12-15 18:41:00,
2013-12-15 13:46:00,21.4,14.4,29.79,NNW,338,0.9,0.9,74,0.00,,---,0.00,VWS V14.00,2013-12-15 18:46:00,
2013-12-15 13:51:00,21.2,14.5,29.79,NNW,338,0.9,0.9,75,0.00,,---,0.00,VWS V14.00,2013-12-15 18:51:00,
2013-12-15 13:56:00,21.2,14.5,29.79,NNE,22,2.5,2.5,75,0.00,,---,0.00,VWS V14.00,2013-12-15 18:56:00,
2013-12-15 14:01:00,21.0,14.4,29.82,WSW,248,3.8,3.8,75,0.00,,---,0.00,VWS V14.00,2013-12-15 19:01:00,
2013-12-15 14:06:00,21.2,14.8,29.82,WSW,248,0.0,0.0,76,0.00,,---,0.00,VWS V14.00,2013-12-15 19:06:00,
2013-12-15 14:11:00,20.8,14.2,29.82,WSW,248,0.0,0.0,75,0.00,,---,0.00,VWS V14.00,2013-12-15 19:11:00,
2013-12-15 14:16:00,21.0,14.4,29.82,WSW,248,2.9,2.9,75,0.00,,---,0.00,VWS V14.00,2013-12-15 19:16:00,
2013-12-15 14:21:00,20.7,14.0,29.82,NNW,338,1.3,2.9,75,0.00,,---,0.00,VWS V14.00,2013-12-15 19:21:00,
2013-12-15 14:26:00,20.8,14.2,29.82,NNW,338,1.1,1.1,75,0.00,,---,0.00,VWS V14.00,2013-12-15 19:26:00,
2013-12-15 14:31:00,21.0,14.4,29.82,NNW,338,1.1,1.1,75,0.00,,---,0.00,VWS V14.00,2013-12-15 19:31:00,
2013-12-15 14:36:00,21.4,14.7,29.82,WSW,248,2.7,2.7,75,0.00,,---,0.00,VWS V14.00,2013-12-15 19:36:00,
2013-12-15 14:41:00,21.6,14.9,29.82,WSW,248,2.7,2.7,75,0.00,,---,0.00,VWS V14.00,2013-12-15 19:41:00,
2013-12-15 14:46:00,21.4,14.4,29.82,NW,315,1.3,1.3,74,0.00,,---,0.00,VWS V14.00,2013-12-15 19:46:00,
2013-12-15 14:47:00,21.4,14.4,29.82,NW,315,1.3,1.3,74,0.00,,---,0.00,VWS V14.00,2013-12-15 19:47:00,
2013-12-15 14:52:00,21.2,13.6,29.82,NW,315,0.9,1.6,72,0.00,,---,0.00,VWS V14.00,2013-12-15 19:52:00,
2013-12-15 14:57:00,21.0,13.4,29.82,NW,315,2.0,2.0,72,0.00,,---,0.00,VWS V14.00,2013-12-15 19:57:00,
2013-12-15 15:02:00,20.8,13.2,29.82,North,0,1.3,2.0,72,0.00,,---,0.00,VWS V14.00,2013-12-15 20:02:00,
2013-12-15 15:07:00,20.7,13.1,29.82,North,0,1.3,1.3,72,0.00,,---,0.00,VWS V14.00,2013-12-15 20:07:00,
2013-12-15 15:12:00,20.5,12.3,29.82,WNW,292,1.3,1.3,70,0.00,,---,0.00,VWS V14.00,2013-12-15 20:12:00,
2013-12-15 15:17:00,20.3,11.8,29.82,WNW,292,1.3,1.3,69,0.00,,---,0.00,VWS V14.00,2013-12-15 20:17:00,
2013-12-15 15:22:00,20.5,12.3,29.82,South,180,0.0,0.0,70,0.00,,---,0.00,VWS V14.00,2013-12-15 20:22:00,
2013-12-15 15:27:00,20.5,12.3,29.79,South,180,0.0,0.0,70,0.00,,---,0.00,VWS V14.00,2013-12-15 20:27:00,
2013-12-15 15:32:00,20.3,11.4,29.79,WSW,248,2.9,2.9,68,0.00,,---,0.00,VWS V14.00,2013-12-15 20:32:00,
2013-12-15 15:37:00,20.3,11.8,29.79,WNW,292,2.7,2.7,69,0.00,,---,0.00,VWS V14.00,2013-12-15 20:37:00,
2013-12-15 15:42:00,20.3,11.8,29.82,SSW,202,2.5,2.5,69,0.00,,---,0.00,VWS V14.00,2013-12-15 20:42:00,
2013-12-15 15:47:00,20.1,11.6,29.82,SW,225,1.6,2.0,69,0.00,,---,0.00,VWS V14.00,2013-12-15 20:47:00,
2013-12-15 15:53:00,20.1,11.9,29.82,SSE,158,3.4,3.4,70,0.00,,---,0.00,VWS V14.00,2013-12-15 20:53:00,
2013-12-15 15:58:00,20.1,11.6,29.85,NNW,338,2.5,2.5,69,0.00,,---,0.00,VWS V14.00,2013-12-15 20:58:00,
2013-12-15 16:03:00,19.9,11.4,29.85,South,180,2.7,2.7,69,0.00,,---,0.00,VWS V14.00,2013-12-15 21:03:00,
2013-12-15 16:08:00,19.9,11.4,29.85,NNW,338,2.7,2.7,69,0.00,,---,0.00,VWS V14.00,2013-12-15 21:08:00,
2013-12-15 16:13:00,19.8,10.9,29.85,NNW,338,2.7,2.7,68,0.00,,---,0.00,VWS V14.00,2013-12-15 21:13:00,
2013-12-15 16:18:00,19.6,10.4,29.85,NW,315,2.0,2.0,67,0.00,,---,0.00,VWS V14.00,2013-12-15 21:18:00,
2013-12-15 16:23:00,19.8,11.2,29.85,NW,315,0.0,0.0,69,0.00,,---,0.00,VWS V14.00,2013-12-15 21:23:00,
2013-12-15 16:28:00,19.6,10.8,29.85,WNW,292,1.3,1.3,68,0.00,,---,0.00,VWS V14.00,2013-12-15 21:28:00,
2013-12-15 16:33:00,19.6,10.8,29.85,NNW,338,2.0,2.0,68,0.00,,---,0.00,VWS V14.00,2013-12-15 21:33:00,
2013-12-15 16:38:00,19.6,11.1,29.85,WSW,248,0.0,0.9,69,0.00,,---,0.00,VWS V14.00,2013-12-15 21:38:00,
2013-12-15 16:43:00,19.4,10.9,29.85,WSW,248,0.0,0.0,69,0.00,,---,0.00,VWS V14.00,2013-12-15 21:43:00,
2013-12-15 16:48:00,19.4,10.2,29.85,North,0,2.0,2.0,67,0.00,,---,0.00,VWS V14.00,2013-12-15 21:48:00,
2013-12-15 16:53:00,19.2,10.1,29.85,North,0,2.0,2.0,67,0.00,,---,0.00,VWS V14.00,2013-12-15 21:53:00,
2013-12-15 16:58:00,19.0,10.2,29.85,NNW,338,1.1,1.1,68,0.00,,---,0.00,VWS V14.00,2013-12-15 21:58:00,
2013-12-15 17:03:00,18.9,10.4,29.85,NNW,338,1.1,1.1,69,0.00,,---,0.00,VWS V14.00,2013-12-15 22:03:00,
2013-12-15 17:08:00,18.9,10.4,29.85,NNW,338,0.0,1.1,69,0.00,,---,0.00,VWS V14.00,2013-12-15 22:08:00,
2013-12-15 17:13:00,18.9,11.0,29.85,NW,315,0.9,0.9,71,0.00,,---,0.00,VWS V14.00,2013-12-15 22:13:00,
2013-12-15 17:18:00,18.7,10.9,29.85,NW,315,2.2,2.2,71,0.00,,---,0.00,VWS V14.00,2013-12-15 22:18:00,
2013-12-15 17:23:00,18.7,10.5,29.85,NNW,338,0.9,3.6,70,0.00,,---,0.00,VWS V14.00,2013-12-15 22:23:00,
2013-12-15 17:28:00,18.7,10.5,29.88,West,270,0.0,0.0,70,0.00,,---,0.00,VWS V14.00,2013-12-15 22:28:00,
2013-12-15 17:33:00,18.9,10.7,29.88,WSW,248,1.6,1.6,70,0.00,,---,0.00,VWS V14.00,2013-12-15 22:33:00,
2013-12-15 17:38:00,18.9,10.7,29.88,WSW,248,0.0,0.0,70,0.00,,---,0.00,VWS V14.00,2013-12-15 22:38:00,
2013-12-15 17:43:00,18.9,10.7,29.85,NNW,338,0.0,1.3,70,0.00,,---,0.00,VWS V14.00,2013-12-15 22:43:00,
2013-12-15 17:48:00,18.9,10.7,29.85,NNW,338,0.0,0.0,70,0.00,,---,0.00,VWS V14.00,2013-12-15 22:48:00,
2013-12-15 17:53:00,18.7,9.6,29.85,NNE,22,1.6,1.6,67,0.00,,---,0.00,VWS V14.00,2013-12-15 22:53:00,
2013-12-15 17:58:00,18.7,9.9,29.88,NNW,338,0.0,0.0,68,0.00,,---,0.00,VWS V14.00,2013-12-15 22:58:00,
2013-12-15 18:03:00,18.7,9.6,29.88,West,270,1.1,1.1,67,0.00,,---,0.00,VWS V14.00,2013-12-15 23:03:00,
2013-12-15 18:09:00,18.7,9.2,29.88,West,270,1.1,1.1,66,0.00,,---,0.00,VWS V14.00,2013-12-15 23:09:00,
2013-12-15 18:14:00,18.9,9.4,29.88,West,270,0.0,0.0,66,0.00,,---,0.00,VWS V14.00,2013-12-15 23:14:00,
2013-12-15 18:19:00,18.7,9.6,29.88,West,270,0.0,0.0,67,0.00,,---,0.00,VWS V14.00,2013-12-15 23:19:00,
2013-12-15 18:24:00,18.7,9.9,29.88,WSW,248,0.0,0.0,68,0.00,,---,0.00,VWS V14.00,2013-12-15 23:24:00,
2013-12-15 18:29:00,18.7,10.2,29.88,WSW,248,0.0,0.0,69,0.00,,---,0.00,VWS V14.00,2013-12-15 23:29:00,
2013-12-15 18:34:00,18.9,10.4,29.88,West,270,1.3,1.3,69,0.00,,---,0.00,VWS V14.00,2013-12-15 23:34:00,
2013-12-15 18:39:00,18.7,10.2,29.88,West,270,1.3,1.3,69,0.00,,---,0.00,VWS V14.00,2013-12-15 23:39:00,
2013-12-15 18:44:00,18.9,10.4,29.88,NNW,338,0.0,0.0,69,0.00,,---,0.00,VWS V14.00,2013-12-15 23:44:00,
2013-12-15 18:49:00,18.9,10.4,29.88,NW,315,2.0,2.0,69,0.00,,---,0.00,VWS V14.00,2013-12-15 23:49:00,
2013-12-15 18:54:00,19.0,10.2,29.88,NNW,338,2.0,2.0,68,0.00,,---,0.00,VWS V14.00,2013-12-15 23:54:00,
2013-12-15 18:59:00,19.0,10.2,29.88,WSW,248,0.0,2.0,68,0.00,,---,0.00,VWS V14.00,2013-12-15 23:59:00,
2013-12-15 19:04:00,19.0,10.2,29.88,NNW,338,1.1,1.1,68,0.00,,---,0.00,VWS V14.00,2013-12-16 00:04:00,
2013-12-15 19:09:00,19.0,10.2,29.88,WSW,248,1.6,1.6,68,0.00,,---,0.00,VWS V14.00,2013-12-16 00:09:00,
2013-12-15 19:14:00,19.2,10.1,29.88,SW,225,0.0,0.0,67,0.00,,---,0.00,VWS V14.00,2013-12-16 00:14:00,
2013-12-15 19:19:00,19.0,9.2,29.88,WSW,248,2.5,2.9,65,0.00,,---,0.00,VWS V14.00,2013-12-16 00:19:00,
2013-12-15 19:24:00,19.0,9.2,29.88,WSW,248,2.5,2.5,65,0.00,,---,0.00,VWS V14.00,2013-12-16 00:24:00,
2013-12-15 19:29:00,19.0,9.6,29.88,SSW,202,2.7,2.7,66,0.00,,---,0.00,VWS V14.00,2013-12-16 00:29:00,
2013-12-15 19:34:00,19.0,9.6,29.88,SSW,202,2.7,2.7,66,0.00,,---,0.00,VWS V14.00,2013-12-16 00:34:00,
2013-12-15 19:39:00,18.9,9.4,29.88,North,0,2.0,2.0,66,0.00,,---,0.00,VWS V14.00,2013-12-16 00:39:00,
2013-12-15 19:44:00,19.0,9.6,29.88,North,0,2.0,2.0,66,0.00,,---,0.00,VWS V14.00,2013-12-16 00:44:00,
2013-12-15 19:50:00,19.0,9.9,29.88,NNW,338,0.0,0.0,67,0.00,,---,0.00,VWS V14.00,2013-12-16 00:50:00,
2013-12-15 19:55:00,18.9,9.4,29.88,North,0,0.0,0.0,66,0.00,,---,0.00,VWS V14.00,2013-12-16 00:55:00,
2013-12-15 20:00:00,18.7,8.9,29.91,NNW,338,2.7,2.7,65,0.00,,---,0.00,VWS V14.00,2013-12-16 01:00:00,
2013-12-15 20:05:00,18.7,8.9,29.91,NNW,338,2.7,2.7,65,0.00,,---,0.00,VWS V14.00,2013-12-16 01:05:00,
2013-12-15 20:10:00,18.9,9.1,29.91,SE,135,2.7,2.7,65,0.00,,---,0.00,VWS V14.00,2013-12-16 01:10:00,
2013-12-15 20:15:00,18.9,9.4,29.88,North,0,0.0,2.7,66,0.00,,---,0.00,VWS V14.00,2013-12-16 01:15:00,
2013-12-15 20:20:00,18.9,9.4,29.88,SSE,158,1.6,1.6,66,0.00,,---,0.00,VWS V14.00,2013-12-16 01:20:00,
2013-12-15 20:25:00,19.0,9.6,29.88,SW,225,0.0,1.6,66,0.00,,---,0.00,VWS V14.00,2013-12-16 01:25:00,
2013-12-15 20:30:00,18.9,9.1,29.91,West,270,2.0,2.0,65,0.00,,---,0.00,VWS V14.00,2013-12-16 01:30:00,
2013-12-15 20:35:00,19.0,9.2,29.91,West,270,0.0,0.0,65,0.00,,---,0.00,VWS V14.00,2013-12-16 01:35:00,
2013-12-15 20:40:00,18.9,8.4,29.91,WNW,292,1.6,2.0,63,0.00,,---,0.00,VWS V14.00,2013-12-16 01:40:00,
2013-12-15 20:45:00,18.7,8.2,29.91,North,0,1.3,1.3,63,0.00,,---,0.00,VWS V14.00,2013-12-16 01:45:00,
2013-12-15 20:50:00,18.7,7.8,29.91,NNW,338,0.9,1.3,62,0.00,,---,0.00,VWS V14.00,2013-12-16 01:50:00,
2013-12-15 20:55:00,18.7,8.2,29.91,WSW,248,0.9,0.9,63,0.00,,---,0.00,VWS V14.00,2013-12-16 01:55:00,
2013-12-15 21:00:00,18.7,7.8,29.91,North,0,2.5,2.5,62,0.00,,---,0.00,VWS V14.00,2013-12-16 02:00:00,
2013-12-15 21:05:00,18.7,7.8,29.91,SW,225,0.0,0.9,62,0.00,,---,0.00,VWS V14.00,2013-12-16 02:05:00,
2013-12-15 21:10:00,18.7,7.8,29.91,West,270,0.9,2.0,62,0.00,,---,0.00,VWS V14.00,2013-12-16 02:10:00,
2013-12-15 21:15:00,18.7,8.2,29.94,WNW,292,0.0,0.9,63,0.00,,---,0.00,VWS V14.00,2013-12-16 02:15:00,
2013-12-15 21:20:00,18.7,8.2,29.94,WSW,248,0.9,1.1,63,0.00,,---,0.00,VWS V14.00,2013-12-16 02:20:00,
2013-12-15 21:25:00,18.7,8.2,29.94,NW,315,1.6,1.6,63,0.00,,---,0.00,VWS V14.00,2013-12-16 02:25:00,
2013-12-15 21:30:00,18.7,8.5,29.94,NW,315,1.6,1.6,64,0.00,,---,0.00,VWS V14.00,2013-12-16 02:30:00,
2013-12-15 21:35:00,18.7,8.5,29.94,WNW,292,0.0,0.0,64,0.00,,---,0.00,VWS V14.00,2013-12-16 02:35:00,
2013-12-15 21:40:00,18.7,8.5,29.94,WSW,248,0.0,0.0,64,0.00,,---,0.00,VWS V14.00,2013-12-16 02:40:00,
2013-12-15 21:45:00,18.5,8.4,29.94,WNW,292,0.0,0.0,64,0.00,,---,0.00,VWS V14.00,2013-12-16 02:45:00,
2013-12-15 21:50:00,18.5,8.7,29.94,West,270,1.1,2.2,65,0.00,,---,0.00,VWS V14.00,2013-12-16 02:50:00,
2013-12-15 21:55:00,18.5,9.1,29.94,West,270,0.0,0.0,66,0.00,,---,0.00,VWS V14.00,2013-12-16 02:55:00,
2013-12-15 22:00:00,18.5,9.4,29.94,South,180,0.0,0.0,67,0.00,,---,0.00,VWS V14.00,2013-12-16 03:00:00,
2013-12-15 22:05:00,18.5,9.4,29.94,West,270,0.0,0.0,67,0.00,,---,0.00,VWS V14.00,2013-12-16 03:05:00,
2013-12-15 22:10:00,18.5,9.4,29.94,SSW,202,0.9,0.9,67,0.00,,---,0.00,VWS V14.00,2013-12-16 03:10:00,
2013-12-15 22:15:00,18.5,9.7,29.94,West,270,0.0,0.0,68,0.00,,---,0.00,VWS V14.00,2013-12-16 03:15:00,
2013-12-15 22:20:00,18.5,9.7,29.94,NW,315,0.0,0.0,68,0.00,,---,0.00,VWS V14.00,2013-12-16 03:20:00,
2013-12-15 22:25:00,18.3,9.5,29.94,West,270,1.1,1.1,68,0.00,,---,0.00,VWS V14.00,2013-12-16 03:25:00,
2013-12-15 22:30:00,18.3,9.2,29.94,NNW,338,1.6,1.6,67,0.00,,---,0.00,VWS V14.00,2013-12-16 03:30:00,
2013-12-15 22:36:00,18.3,9.2,29.94,NNW,338,0.0,0.0,67,0.00,,---,0.00,VWS V14.00,2013-12-16 03:36:00,
2013-12-15 22:39:00,18.3,9.2,29.94,SSW,202,0.0,0.0,67,0.00,,---,0.00,VWS V14.00,2013-12-16 03:39:00,
2013-12-15 22:44:00,18.3,9.2,29.94,WSW,248,1.3,1.3,67,0.00,,---,0.00,VWS V14.00,2013-12-16 03:44:00,
2013-12-15 22:49:00,18.1,9.0,29.94,NNW,338,0.0,0.0,67,0.00,,---,0.00,VWS V14.00,2013-12-16 03:49:00,
2013-12-15 22:54:00,18.1,9.0,29.94,West,270,1.6,1.6,67,0.00,,---,0.00,VWS V14.00,2013-12-16 03:54:00,
2013-12-15 22:59:00,18.1,9.0,29.91,NNW,338,0.0,0.0,67,0.00,,---,0.00,VWS V14.00,2013-12-16 03:59:00,
2013-12-15 23:04:00,18.1,9.0,29.91,NNW,338,0.9,0.9,67,0.00,,---,0.00,VWS V14.00,2013-12-16 04:04:00,
2013-12-15 23:09:00,18.1,8.7,29.91,West,270,2.0,2.0,66,0.00,,---,0.00,VWS V14.00,2013-12-16 04:09:00,
2013-12-15 23:14:00,18.1,9.0,29.94,West,270,2.0,2.0,67,0.00,,---,0.00,VWS V14.00,2013-12-16 04:14:00,
2013-12-15 23:19:00,18.1,9.4,29.94,WSW,248,0.9,0.9,68,0.00,,---,0.00,VWS V14.00,2013-12-16 04:19:00,
2013-12-15 23:24:00,18.1,9.4,29.94,WSW,248,0.9,0.9,68,0.00,,---,0.00,VWS V14.00,2013-12-16 04:24:00,
2013-12-15 23:29:00,18.1,9.4,29.94,North,0,0.9,0.9,68,0.00,,---,0.00,VWS V14.00,2013-12-16 04:29:00,
2013-12-15 23:34:00,18.0,9.2,29.94,North,0,0.9,0.9,68,0.00,,---,0.00,VWS V14.00,2013-12-16 04:34:00,
2013-12-15 23:39:00,17.8,9.0,29.94,North,0,0.0,0.0,68,0.00,,---,0.00,VWS V14.00,2013-12-16 04:39:00,
2013-12-15 23:44:00,17.8,9.0,29.94,North,0,0.0,0.0,68,0.00,,---,0.00,VWS V14.00,2013-12-16 04:44:00,
2013-12-15 23:49:00,17.8,9.4,29.94,NNE,22,0.0,0.0,69,0.00,,---,0.00,VWS V14.00,2013-12-16 04:49:00,
2013-12-15 23:54:00,17.6,9.2,29.94,North,0,1.1,1.1,69,0.00,,---,0.00,VWS V14.00,2013-12-16 04:54:00,
2013-12-15 23:59:00,17.6,9.5,29.94,North,0,2.2,2.2,70,0.00,,---,0.00,VWS V14.00,2013-12-16 04:59:00,